Frederick, OK

12:21 AM CDT on August 29, 2016 (GMT -0500)
Frederick Municipal

Weather History for KFDR - August, 2013

Change the Weather History Date:

Saturday, August 3, 2013

  Actual Average (KLTS) Record (KLTS)
Temperature  
Mean Temperature 90 °F -  
Max Temperature 104 °F 95 °F 111 °F (2012)
Min Temperature 77 °F 71 °F 65 °F (2014)
Cooling Degree Days 26    
Growing Degree Days 40 (Base 50)    
Moisture  
Dew Point 60 °F    
Average Humidity 37    
Maximum Humidity 58    
Minimum Humidity 21    
Precipitation  
Precipitation 0.00 in - - ()
Sea Level Pressure  
Sea Level Pressure 29.85 in    
Wind  
Wind Speed 14 mph (South)    
Max Wind Speed 21 mph    
Max Gust Speed 28 mph    
Visibility 10 miles    
Events      
Averages and records for this station are not official NWS values.
T = Trace of Precipitation, MM = Missing Value Source: NWS Daily Summary

Daily Weather History Graph

Daily Weather History Graph

Search for Another Location

Airport or City:

Trip Planner

Search our weather history database for the weather conditions in past years. The results will help you decide how hot, cold, wet, or windy it might be!

Date:

Astronomy

Aug. 03, 2013 Rise Set
Actual Time 6:48 AM CDT 8:35 PM CDT
Civil Twilight 6:20 AM CDT 9:02 PM CDT
Nautical Twilight 5:47 AM CDT 9:35 PM CDT
Astronomical Twilight 5:12 AM CDT 10:10 PM CDT
Moon 4:00 AM CDT (8/3) 6:17 PM CDT (8/3)
Length of Visible Light 14h 41m
Length of Day
13h 46m
Waning Crescent, 9% of the Moon is Illuminated
Aug 3
Waning Crescent
Aug 6
New
Aug 14
First Quarter
Aug 20
Full
Aug 28
Last Quarter

Hourly Weather History & Observations

Time (CDT) Temp. Heat Index Dew Point Humidity Pressure Visibility Wind Dir Wind Speed Gust Speed Precip Events Conditions
12:53 AM 89.1 °F 89.0 °F 61.0 °F 39% 29.79 in 10.0 mi South 17.3 mph - N/A   Clear
1:53 AM 87.1 °F 86.7 °F 60.1 °F 40% 29.80 in 10.0 mi South 16.1 mph - N/A   Clear
2:53 AM 84.9 °F 85.0 °F 61.0 °F 44% 29.81 in 10.0 mi South 11.5 mph - N/A   Clear
3:53 AM 82.9 °F 83.3 °F 61.0 °F 47% 29.81 in 10.0 mi South 11.5 mph - N/A   Clear
4:53 AM 81.0 °F 81.7 °F 61.0 °F 50% 29.81 in 10.0 mi South 9.2 mph - N/A   Clear
5:53 AM 79.0 °F - 61.0 °F 54% 29.82 in 10.0 mi South 9.2 mph - N/A   Clear
6:53 AM 77.0 °F - 61.0 °F 58% 29.84 in 10.0 mi South 6.9 mph - N/A   Clear
7:53 AM 80.1 °F 81.2 °F 62.1 °F 54% 29.86 in 10.0 mi South 10.4 mph - N/A   Clear
8:53 AM 84.9 °F 85.0 °F 61.0 °F 44% 29.87 in 10.0 mi SSW 18.4 mph - N/A   Clear
9:53 AM 89.1 °F 89.0 °F 61.0 °F 39% 29.88 in 10.0 mi SSW 17.3 mph - N/A   Clear
10:53 AM 93.0 °F 93.0 °F 61.0 °F 34% 29.88 in 10.0 mi SW 15.0 mph 24.2 mph N/A   Clear
11:53 AM 96.1 °F 96.9 °F 62.1 °F 32% 29.88 in 10.0 mi SSW 16.1 mph 25.3 mph N/A   Clear
12:53 PM 98.1 °F 99.1 °F 62.1 °F 30% 29.87 in 10.0 mi SW 12.7 mph 18.4 mph N/A   Clear
1:53 PM 100.0 °F 101.8 °F 62.1 °F 29% 29.86 in 10.0 mi SSW 9.2 mph 19.6 mph N/A   Clear
2:53 PM 102.9 °F 103.0 °F 59.0 °F 23% 29.84 in 10.0 mi SSW 13.8 mph 19.6 mph N/A   Clear
3:53 PM 102.9 °F 102.4 °F 57.0 °F 22% 29.83 in 10.0 mi South 10.4 mph - N/A   Clear
4:53 PM 104.0 °F 103.4 °F 57.0 °F 21% 29.82 in 10.0 mi SSE 12.7 mph 24.2 mph N/A   Clear
5:53 PM 102.9 °F 102.4 °F 57.0 °F 22% 29.81 in 10.0 mi SSE 18.4 mph 23.0 mph N/A   Clear
6:53 PM 100.9 °F 100.0 °F 57.0 °F 23% 29.81 in 10.0 mi SSE 16.1 mph 24.2 mph N/A   Clear
7:53 PM 97.0 °F 97.4 °F 61.0 °F 30% 29.83 in 10.0 mi ESE 20.7 mph 27.6 mph N/A   Clear
8:53 PM 93.0 °F 93.0 °F 61.0 °F 34% 29.86 in 10.0 mi ESE 16.1 mph - N/A   Clear
9:53 PM 90.0 °F 89.7 °F 60.1 °F 37% 29.89 in 10.0 mi ESE 15.0 mph - N/A   Clear
10:53 PM 88.0 °F 87.6 °F 60.1 °F 39% 29.90 in 10.0 mi SE 15.0 mph - N/A   Clear
11:53 PM 86.0 °F 86.1 °F 61.0 °F 43% 29.91 in 10.0 mi SE 11.5 mph - N/A   Clear